Retour au catalogue

STARLINK-37168

ActifCommunicationsSSO
NORAD 68766·PAYLOAD·🇺🇸 United States

Lancé Apr 19, 2026 depuis Vandenberg Space Force Base

Loading…

Prochains Passages (prochaines 24 heures)

TLE

FraisSource: CelesTrak SupGP

Époque: Sep 15, 2026, 04:10 UTC

1 68766C 26086A   26258.17409722 -.00039580  00000+0 -12293-2 0  2583
2 68766  97.2843 293.7582 0001290  88.5062 291.9507 15.33442945    19

Suivez STARLINK-37168 en temps réel avec AllMySat

Download on the App Store